Regional Weather Roundup
Issued by NWS Goodland, KS

Home | Current Version | Previous Version | Text Only | Print | Product List | Glossary On
Versions: 1 2 3 4 5 6 7 8 9 10 11 12 13 14 15 16 17 18 19 20 21 22 23 24 25 26 27 28 29 30 31 32 33 34 35 36 37 38 39 40 41 42 43 44 45 46 47 48 49 50
000
ASUS43 KGLD 250659
RWRGLD

GOODLAND FORECAST AREA HOURLY WEATHER ROUNDUP
NATIONAL WEATHER SERVICE GOODLAND KS
100 AM MDT FRI APR 25 2014

...OFFICIAL OBSERVATIONS...

CITY           SKY/WX    TMP DP  RH WIND       PRES   REMARKS
GOODLAND KS    CLEAR     50  17  27 SW12      29.91S
HILL CITY KS   PTCLDY    46  34  62 SW6       29.89R
IMPERIAL NEB   PTCLDY    44  22  41 SW9       29.86F
MCCOOK NEB     PTCLDY    42  26  53 SW6       29.86F
AKRON CO       CLOUDY    50  22  33 S13       29.90S
BURLINGTON CO  PTCLDY    44  17  33 S14       29.91F
LIMON CO       MOCLDY    34  20  56 N6        29.95S
$$

...UNOFFICIAL OBSERVATIONS...

CITY           SKY/WX    TMP DP  RH WIND       PRES   REMARKS
COLBY KS       CLEAR     43  27  52 SW7       29.91S
LENORA KS        N/A     50  32  50 S13         N/A
LEOTI KS         N/A     49  32  51 CALM        N/A
NORTON KS      CLEAR     39  30  70 SW9       29.86S
SHARON SPRINGS   N/A     42  22  45 S9          N/A
WAKEENEY KS      N/A     51  22  31 MISG        N/A
TRENTON NEB      N/A     46  32  58 CALM        N/A
KIT CARSON CO    N/A     40  15  36 MISG        N/A
$$



USA.gov is the U.S. government's official web portal to all federal, state and local government web resources and services.